Weather reports worldwide

Advertisment
Murcia, Spain (8430): temperature & dewpoint: 16.09.2018 23:00:00 - 22.09.2018 23:00:00 (CEST)Murcia, Spain (8430): wind speed: 16.09.2018 23:00:00 - 22.09.2018 23:00:00 (CEST)Murcia, Spain (8430): wind direction: 16.09.2018 23:00:00 - 22.09.2018 23:00:00 (CEST)Murcia, Spain (8430): reduced air pressure: 16.09.2018 23:00:00 - 22.09.2018 23:00:00 (CEST)Murcia, Spain (8430): visibility: 16.09.2018 23:00:00 - 22.09.2018 23:00:00 (CEST)Murcia, Spain (8430): precipitation: 16.09.2018 23:00:00 - 22.09.2018 23:00:00 (CEST)
Date & Time tt [°C] td [°C] ff [km/h] ff [kn] dd ppp [hPa] vv [km] rr [mm]
22.09.2018 23:00:00 25,4 12,6 4 2 SSE 1022,1 20 -
22.09.2018 22:00:00 27,3 11,7 8 4 WSW 1021,8 20 0,0
22.09.2018 21:00:00 29,1 11,6 8 4 SW 1021,3 20 0,0
22.09.2018 20:00:00 30,7 13,0 2 1 SSE 1020,8 20 -
22.09.2018 19:00:00 32,3 13,5 8 4 SSE 1020,3 20 0,0
22.09.2018 18:00:00 33,2 17,0 11 6 SSE 1020,2 20 0,0
22.09.2018 17:00:00 34,4 14,8 5 3 S 1020,4 20 -
22.09.2018 16:00:00 33,9 15,8 8 4 ENE 1020,7 20 0,0
22.09.2018 15:00:00 33,3 17,5 5 3 S 1021,3 20 0,0
22.09.2018 14:00:00 31,8 18,7 5 3 E 1021,9 20 -
22.09.2018 13:00:00 30,3 19,0 5 3 E 1022,6 19 0,0
22.09.2018 12:00:00 28,6 19,5 4 2 WSW 1022,9 16 0,0
22.09.2018 11:00:00 26,6 19,7 4 2 ENE 1022,9 15 -
22.09.2018 10:00:00 24,2 19,7 4 2 W 1022,4 13 0,0
22.09.2018 09:00:00 22,1 19,3 4 2 SW 1022,0 12 0,0
22.09.2018 08:00:00 21,2 19,3 4 2 W 1021,5 9 -
22.09.2018 07:00:00 21,8 19,5 4 2 W 1020,7 9 0,0
22.09.2018 06:00:00 22,0 19,9 5 3 W 1020,2 9 0,0
22.09.2018 05:00:00 22,1 19,3 5 3 S 1019,9 10 -
22.09.2018 04:00:00 22,9 19,9 4 2 W 1019,9 12 0,0
22.09.2018 03:00:00 23,5 20,4 4 2 WSW 1020,0 12 0,0
22.09.2018 02:00:00 23,7 20,4 2 1 N 1020,0 13 -
22.09.2018 01:00:00 24,3 19,6 4 2 SW 1020,0 15 0,0
22.09.2018 00:00:00 24,9 19,5 4 2 WNW 1019,9 17 0,0
21.09.2018 23:00:00 25,8 19,0 2 1 ESE 1019,1 19 -
21.09.2018 22:00:00 27,0 18,8 9 5 WSW 1018,5 20 0,0
21.09.2018 21:00:00 28,0 18,7 8 4 WSW 1017,7 20 0,0
21.09.2018 20:00:00 29,6 17,8 9 5 SW 1016,7 20 -
21.09.2018 19:00:00 32,0 17,5 9 5 SW 1016,0 20 0,0
21.09.2018 18:00:00 34,1 16,9 11 6 SSW 1015,5 20 0,0
21.09.2018 17:00:00 35,1 13,9 5 3 SSW 1015,6 20 -
21.09.2018 16:00:00 34,5 14,4 5 3 SE 1016,1 20 0,0
21.09.2018 15:00:00 33,5 15,0 5 3 SW 1016,9 20 0,0
21.09.2018 14:00:00 32,0 15,5 5 3 WSW 1017,6 20 -
21.09.2018 13:00:00 30,0 18,1 5 3 S 1018,2 19 0,0
21.09.2018 12:00:00 27,6 18,9 5 3 SW 1018,8 18 0,0
21.09.2018 11:00:00 25,4 18,8 5 3 W 1018,8 15 -
21.09.2018 10:00:00 23,8 19,3 2 1 SSW 1018,5 13 0,0
21.09.2018 09:00:00 21,6 18,8 4 2 S 1018,4 13 0,0
21.09.2018 08:00:00 20,8 18,7 4 2 W 1017,8 10 -
21.09.2018 07:00:00 21,0 18,9 4 2 WNW 1017,4 11 0,0
21.09.2018 06:00:00 21,5 19,2 5 3 WSW 1017,1 12 0,0
21.09.2018 05:00:00 21,9 19,6 8 4 W 1017,1 12 -
21.09.2018 04:00:00 22,3 19,8 4 2 SW 1017,4 12 0,0
21.09.2018 03:00:00 22,6 19,9 4 2 W 1017,8 11 0,0
21.09.2018 02:00:00 23,3 20,2 4 2 S 1018,1 14 -
21.09.2018 01:00:00 23,7 20,0 0 0 N 1018,4 17 0,0
21.09.2018 00:00:00 24,0 20,1 4 2 NE 1018,5 17 0,0
20.09.2018 23:00:00 24,7 20,0 4 2 NE 1018,3 19 -
20.09.2018 22:00:00 25,5 19,9 8 4 NE 1018,2 19 0,0
20.09.2018 21:00:00 26,7 19,8 5 3 ENE 1017,6 19 0,0
20.09.2018 20:00:00 28,2 19,4 8 4 SE 1017,1 20 -
20.09.2018 19:00:00 30,2 19,3 11 6 SE 1017,0 20 0,0
20.09.2018 18:00:00 31,5 18,8 11 6 SE 1016,8 20 0,0
20.09.2018 17:00:00 32,9 16,7 5 3 SSE 1017,3 20 -
20.09.2018 16:00:00 32,6 16,8 8 4 S 1017,9 20 0,0
20.09.2018 15:00:00 31,8 18,4 4 2 S 1018,5 20 0,0
20.09.2018 14:00:00 30,5 19,2 5 3 S 1019,3 20 -
20.09.2018 13:00:00 28,7 19,3 5 3 WSW 1020,1 19 0,0
20.09.2018 12:00:00 27,4 19,7 4 2 WSW 1020,7 18 0,0
20.09.2018 11:00:00 25,7 20,0 5 3 WSW 1020,8 15 -
20.09.2018 10:00:00 23,8 20,3 5 3 WSW 1020,8 12 0,0
20.09.2018 09:00:00 22,7 20,4 5 3 W 1020,5 11 0,0
20.09.2018 08:00:00 21,9 20,0 4 2 W 1020,3 10 -
20.09.2018 07:00:00 22,3 20,4 4 2 WSW 1020,0 11 0,0
20.09.2018 06:00:00 22,2 20,5 4 2 S 1020,1 10 0,0
20.09.2018 05:00:00 22,2 20,5 2 1 WSW 1020,0 9 -
20.09.2018 04:00:00 22,2 20,7 4 2 W 1020,4 9 0,0
20.09.2018 03:00:00 22,2 20,3 0 0 N 1020,8 7 0,0
20.09.2018 02:00:00 23,3 21,0 2 1 W 1021,0 13 -
20.09.2018 01:00:00 23,5 20,6 0 0 N 1021,3 14 0,0
20.09.2018 00:00:00 23,9 20,8 4 2 NE 1021,3 16 0,0
19.09.2018 23:00:00 24,7 20,8 5 3 ENE 1021,5 15 -
19.09.2018 22:00:00 25,4 20,6 9 5 E 1020,9 19 0,0
19.09.2018 21:00:00 26,1 20,0 5 3 E 1019,7 19 0,0
19.09.2018 20:00:00 26,9 19,5 11 6 E 1019,4 20 -
19.09.2018 19:00:00 28,1 18,8 15 8 E 1018,9 20 0,0
19.09.2018 18:00:00 30,2 19,6 15 8 ENE 1018,6 20 0,0
19.09.2018 17:00:00 31,1 19,1 9 5 E 1018,5 20 -
19.09.2018 16:00:00 32,1 14,7 8 4 SE 1018,7 20 0,0
19.09.2018 15:00:00 31,2 16,8 5 3 E 1019,1 20 0,0
19.09.2018 14:00:00 30,3 17,0 9 5 ENE 1019,7 20 -
19.09.2018 13:00:00 29,2 18,3 8 4 SE 1020,3 20 0,0
19.09.2018 12:00:00 27,1 18,7 5 3 SW 1020,5 20 0,0
19.09.2018 11:00:00 25,3 18,2 5 3 NW 1020,4 20 -
19.09.2018 10:00:00 23,2 18,3 5 3 N 1019,8 20 0,0
19.09.2018 09:00:00 21,2 18,4 5 3 NNW 1019,0 20 0,0
19.09.2018 08:00:00 20,9 19,2 4 2 SSE 1018,6 15 -
19.09.2018 07:00:00 21,1 19,6 5 3 W 1018,3 15 0,0
19.09.2018 06:00:00 21,5 20,1 5 3 WNW 1018,3 10 0,0
19.09.2018 05:00:00 22,2 21,0 2 1 ESE 1018,2 - -
19.09.2018 04:00:00 21,9 20,7 8 4 NNW 1018,0 8 0,0
19.09.2018 03:00:00 22,6 20,9 5 3 S 1018,0 12 0,0
19.09.2018 02:00:00 22,6 20,9 8 4 N 1018,8 13 -
19.09.2018 01:00:00 23,0 20,7 5 3 SW 1018,2 15 0,0
19.09.2018 00:00:00 23,9 21,6 4 2 WSW 1018,5 15 0,0
18.09.2018 23:00:00 23,5 21,0 5 3 NNE 1018,2 15 -
18.09.2018 22:00:00 23,6 20,7 11 6 NNE 1017,9 18 0,0
18.09.2018 21:00:00 24,1 22,2 8 4 NNW 1016,8 11 2,0
18.09.2018 20:00:00 25,7 21,6 11 6 NW 1016,6 15 -
18.09.2018 19:00:00 28,0 20,8 16 9 ENE 1015,4 16 0,0
18.09.2018 18:00:00 30,1 21,2 9 5 ESE 1014,7 16 0,0
18.09.2018 17:00:00 29,9 21,0 8 4 ESE 1014,5 15 -
18.09.2018 16:00:00 32,1 17,6 8 4 ESE 1014,4 18 0,0
18.09.2018 15:00:00 31,5 19,2 5 3 E 1014,7 15 0,0
18.09.2018 14:00:00 30,4 19,7 5 3 SE 1015,2 15 -
18.09.2018 13:00:00 29,6 20,5 5 3 S 1016,0 15 0,0
18.09.2018 12:00:00 27,7 20,5 4 2 NW 1016,6 15 0,0
18.09.2018 11:00:00 26,4 20,7 4 2 NW 1016,7 15 -
18.09.2018 10:00:00 24,1 21,0 4 2 SW 1016,3 13 0,0
18.09.2018 09:00:00 22,5 21,0 2 1 ESE 1015,9 10 0,0
18.09.2018 08:00:00 21,7 20,3 5 3 S 1015,4 10 -
18.09.2018 07:00:00 22,1 20,7 5 3 WNW 1015,1 11 0,0
18.09.2018 06:00:00 22,2 21,0 4 2 NNW 1014,9 7 0,0
18.09.2018 05:00:00 22,3 21,1 4 2 NW 1015,0 8 -
18.09.2018 04:00:00 22,4 21,2 5 3 NW 1014,9 8 0,0
18.09.2018 03:00:00 22,8 21,3 2 1 SW 1015,4 11 0,0
18.09.2018 02:00:00 23,3 21,4 2 1 NW 1015,5 10 -
18.09.2018 01:00:00 23,6 21,7 4 2 NW 1016,0 14 0,0
18.09.2018 00:00:00 23,8 21,9 4 2 NW 1016,1 13 0,0
17.09.2018 23:00:00 24,1 21,6 4 2 NE 1016,1 16 -
17.09.2018 22:00:00 24,7 21,8 8 4 E 1016,2 16 0,0
17.09.2018 21:00:00 25,2 21,5 8 4 ENE 1015,9 19 0,0
17.09.2018 20:00:00 25,9 21,6 11 6 ENE 1015,5 20 -
17.09.2018 19:00:00 26,9 20,7 15 8 E 1015,4 19 0,0
17.09.2018 18:00:00 27,8 20,4 13 7 ENE 1015,4 19 0,0
17.09.2018 17:00:00 28,0 20,3 15 8 E 1016,0 20 -
17.09.2018 16:00:00 28,8 20,3 13 7 E 1016,4 20 0,0
17.09.2018 15:00:00 27,8 19,6 15 8 E 1017,3 20 0,0
17.09.2018 14:00:00 27,7 19,0 11 6 ENE 1017,8 20 -
17.09.2018 13:00:00 26,6 20,0 9 5 ENE 1018,5 20 0,0
17.09.2018 12:00:00 27,0 19,9 8 4 ESE 1019,2 20 0,0
17.09.2018 11:00:00 24,8 20,5 5 3 W 1019,4 18 -
17.09.2018 10:00:00 24,0 19,9 5 3 W 1019,1 19 0,0
17.09.2018 09:00:00 22,7 20,0 4 2 SSW 1018,5 17 0,0
17.09.2018 08:00:00 22,5 20,0 5 3 WSW 1018,1 15 -
17.09.2018 07:00:00 22,5 20,8 5 3 N 1018,0 11 0,0
17.09.2018 06:00:00 22,9 20,8 5 3 W 1018,6 12 0,0
17.09.2018 05:00:00 23,2 21,1 4 2 N 1018,7 11 -
17.09.2018 04:00:00 22,7 21,0 9 5 NW 1018,8 10 0,0
17.09.2018 03:00:00 23,0 21,1 5 3 WNW 1019,6 11 0,0
17.09.2018 02:00:00 23,0 21,1 4 2 W 1019,6 12 -
17.09.2018 01:00:00 23,3 21,0 2 1 E 1020,0 14 0,0
17.09.2018 00:00:00 23,5 21,0 5 3 N 1020,0 14 0,0
16.09.2018 23:00:00 24,3 20,6 4 2 SSW 1019,7 19 -

tt = temperature
td = dewpoint
ff = wind speed
dd = wind direction
ppp = reduced air pressure
vv = visibility
rr = precipitation

Next stations